[[{"header":{"parameterUnit":"m.s-1","parameterCategory":1,"la1":30.2991,"la2":30.254,"lo1":-89.0895,"lo2":-89.0444,"dy":0.0017,"dx":0.0017,"nx":28,"ny":28,"refTime":"2025-08-29T03:00:00:Z","depth":0,"parameterNumber":2,"parameterNumberName":"U-component_of_WINDS"},"data":[0,0,0,0,0,0,0,0,0,0,0,0,0,0,0,0,0,0,0,0,0,0,0,0,0,0,0,0,0,0,0,0,0,0,0,0,0,0,0,0,0,0,0,0,0,0,0,0,0,0,0,0,0,0,0,0,0,0,1.2593,1.2594,0,1.2648,1.2649,1.2649,1.2649,1.2649,1.2648,1.2647,1.27,1.2702,1.2704,0,0,0,0,0,0,0,0,0,0,0,0,0,1.2485,1.2487,1.2593,1.2594,1.2595,1.2648,1.2649,1.2649,1.2649,1.2649,1.2648,1.2647,1.27,1.2702,1.2704,0,0,0,0,0,0,0,0,0,0,0,0,0,1.2535,1.2488,1.2593,1.2601,1.2602,1.2648,1.2649,1.265,1.265,1.2649,1.2648,1.2647,1.2699,1.2702,1.2705,1.2745,0,0,1.2714,1.2716,0,0,0,0,0,0,0,0,1.2532,1.2539,1.2599,1.2601,1.2602,1.2641,1.263,1.2681,1.265,1.2632,1.2647,1.2646,1.2681,1.2686,1.2698,1.2747,1.2749,1.2714,1.2716,1.2718,1.2719,0,0,0,0,0,0,0,1.2529,1.2537,1.2615,1.26,1.2602,1.2601,1.2607,1.264,1.2661,1.2633,1.2633,1.264,1.2682,1.2695,1.2699,1.275,1.2714,1.2717,1.2719,1.272,1.2832,1.2833,0,0,0,0,0,0,1.2524,1.2534,1.2613,1.2616,1.2564,1.2604,1.261,1.2629,1.2661,1.2665,1.2641,1.264,1.269,1.2696,1.2701,1.2748,1.2718,1.2721,1.2722,1.2831,1.2832,1.2834,0,0,0,0,0,0,1.2522,1.2531,1.2611,1.2575,1.2585,1.2607,1.2628,1.2631,1.2644,1.2667,1.267,1.2651,1.269,1.2697,1.2733,1.275,1.2722,1.2725,1.283,1.2831,1.2833,1.2843,0,0,0,0,0,0,1.2519,1.253,1.2547,1.2576,1.2587,1.2644,1.2629,1.2633,1.265,1.2649,1.2677,1.2681,1.2689,1.2729,1.2737,1.2753,1.2727,1.2828,1.283,1.2832,1.2841,1.2845,1.2848,0,0,0,0,0,1.2515,1.2547,1.2548,1.2557,1.2608,1.2645,1.2651,1.2661,1.2652,1.2667,1.2681,1.268,1.2747,1.2733,1.2741,1.2759,1.2827,1.283,1.2832,1.284,1.2844,1.2848,0,0,0,0,0,0,1.2519,1.2551,1.2552,1.2595,1.2617,1.2645,1.2665,1.2666,1.269,1.2688,1.2699,1.2705,1.2741,1.2754,1.2738,1.2798,1.2786,1.279,1.2788,1.2793,1.2796,1.2791,1.273,0,0,0,0,0,1.2526,1.2553,1.258,1.2615,1.2626,1.2644,1.266,1.2666,1.2689,1.2698,1.2715,1.2736,1.2761,1.2778,1.2803,1.2844,1.2848,1.286,1.2863,1.2866,1.2869,1.2889,1.2894,1.2842,1.2842,1.2842,0,0,1.2538,1.2559,1.2576,1.2616,1.2634,1.2661,1.2651,1.2681,1.27,1.2702,1.2737,1.275,1.2774,1.2812,1.283,1.2824,1.2885,1.2869,1.2871,1.2873,1.2892,1.2897,1.2901,1.2844,1.2843,1.2843,0,0,1.2574,1.2594,1.2625,1.2643,1.267,1.2681,1.2688,1.2716,1.2724,1.276,1.2761,1.2784,1.2829,1.2846,1.286,1.2901,1.29,1.2909,1.2925,1.2945,1.2949,1.2952,1.2965,1.2969,1.2912,1.2912,1.2912,0,1.2586,1.2628,1.264,1.2669,1.2686,1.2689,1.2719,1.2736,1.2769,1.278,1.2773,1.2828,1.2845,1.2886,1.2896,1.2908,1.2915,1.2905,1.2947,1.2951,1.2955,1.2967,1.2971,1.2913,1.2913,1.2913,1.2913,0,1.264,1.2669,1.269,1.2723,1.2742,1.2772,1.2786,1.2804,1.2808,1.282,1.2855,1.2875,1.2903,1.2914,1.2918,1.2955,1.295,1.2945,1.2932,1.296,1.2971,1.2976,1.2914,1.2914,1.2914,1.2914,0,0,1.268,1.2719,1.2726,1.274,1.277,1.2792,1.282,1.2849,1.2862,1.2886,1.2908,1.2946,1.2941,1.2957,1.2963,1.2981,1.3009,1.2974,1.2974,1.2978,1.3048,1.3049,1.3055,1.3009,1.301,1.3011,1.3045,0,1.2718,1.277,1.2781,1.2825,1.285,1.2853,1.2878,1.2898,1.2909,1.2931,1.2944,1.2969,1.2962,1.2972,1.2989,1.3002,1.3023,1.3,1.3028,1.3029,1.302,1.3061,1.3063,1.3095,1.305,1.305,1.3051,0,1.2769,1.2793,1.284,1.2865,1.2876,1.2898,1.2923,1.2945,1.2967,1.2974,1.2992,1.2996,1.3024,1.3011,1.3048,1.3032,1.3045,1.3052,1.3054,1.3055,1.304,1.3061,1.3105,1.3109,1.3058,1.3058,1.3057,0,1.279,1.2835,1.2868,1.288,1.291,1.2925,1.2939,1.296,1.2975,1.2998,1.3008,1.3033,1.3046,1.3065,1.3074,1.3065,1.311,1.3099,1.3115,1.3114,1.3123,1.3122,1.3167,1.3134,1.3134,1.3134,1.3134,0,1.283,1.2858,1.2878,1.2898,1.2928,1.294,1.297,1.2983,1.3001,1.3023,1.3027,1.3047,1.306,1.3081,1.3089,1.3117,1.3124,1.3129,1.313,1.3127,1.3126,1.3134,1.3131,1.3135,1.3135,1.3135,1.3135,0,1.2859,1.2873,1.2909,1.2935,1.2942,1.2963,1.2984,1.3003,1.3015,1.3041,1.3048,1.3066,1.3091,1.3103,1.3134,1.3139,1.3171,1.3172,1.3163,1.3163,1.3178,1.3176,1.3228,1.3235,1.3199,1.32,1.32,0,1.2882,1.2903,1.2931,1.2946,1.296,1.2984,1.3,1.3012,1.3028,1.3054,1.3069,1.3095,1.3116,1.3155,1.3169,1.3193,1.3193,1.321,1.3196,1.3192,1.3191,1.3188,1.319,1.3211,1.3212,1.3212,1.3212,0,1.2921,1.2927,1.295,1.2976,1.2995,1.3015,1.3035,1.3047,1.3062,1.308,1.3106,1.3122,1.3154,1.3178,1.3202,1.3214,1.3215,1.3217,1.3221,1.3218,1.3211,1.3213,1.3168,1.3215,1.3215,1.3215,1.3214,1.3214,1.2946,1.2964,1.2986,1.3012,1.3028,1.3047,1.3065,1.3079,1.3101,1.3128,1.3134,1.316,1.318,1.3213,1.3226,1.3246,1.3242,1.3249,1.325,1.3251,1.3251,1.3209,1.325,1.325,1.325,1.325,1.325,0,1.2983,1.2997,1.3021,1.3049,1.3068,1.3069,1.3091,1.3107,1.313,1.315,1.317,1.3199,1.3222,1.3238,1.3262,1.3275,1.3275,1.328,1.3278,1.3281,1.3254,1.3247,1.3279,1.3279,1.3279,1.3279,1.3279,1.3279,1.3004,1.3035,1.3043,1.3081,1.3095,1.3122,1.3134,1.3151,1.3166,1.3198,1.3218,1.3229,1.3246,1.3271,1.3291,1.3295,1.3303,1.3307,1.3311,1.3286,1.3283,1.328,1.3273,1.3309,1.3309,1.3335,1.3335,1.3336]},{"header":{"parameterUnit":"m.s-1","parameterCategory":1,"la1":30.2991,"la2":30.254,"lo1":-89.0895,"lo2":-89.0444,"dy":0.0017,"dx":0.0017,"nx":28,"ny":28,"refTime":"2025-08-29T03:00:00:Z","depth":0,"parameterNumber":3,"parameterNumberName":"V-component_of_WINDS"},"data":[0,0,0,0,0,0,0,0,0,0,0,0,0,0,0,0,0,0,0,0,0,0,0,0,0,0,0,0,0,0,0,0,0,0,0,0,0,0,0,0,0,0,0,0,0,0,0,0,0,0,0,0,0,0,0,0,0,0,2.4989,2.499,0,2.512,2.5121,2.5123,2.5149,2.5148,2.5147,2.5146,2.5274,2.5278,2.5282,0,0,0,0,0,0,0,0,0,0,0,0,0,2.4756,2.476,2.4989,2.499,2.4992,2.5119,2.5121,2.5123,2.5149,2.5148,2.5147,2.5146,2.5273,2.5278,2.5283,0,0,0,0,0,0,0,0,0,0,0,0,0,2.4869,2.4761,2.4988,2.5021,2.5025,2.5119,2.5121,2.5123,2.515,2.5148,2.5147,2.5145,2.5271,2.5277,2.5283,2.5353,0,0,2.5303,2.5306,0,0,0,0,0,0,0,0,2.4862,2.4877,2.5014,2.5019,2.5024,2.5117,2.5086,2.52,2.515,2.5102,2.5146,2.5145,2.5222,2.5233,2.526,2.5359,2.5364,2.5304,2.5308,2.531,2.5312,0,0,0,0,0,0,0,2.4854,2.4872,2.504,2.5016,2.5022,2.5027,2.5041,2.5108,2.5169,2.5106,2.5108,2.5124,2.5225,2.5254,2.5263,2.5366,2.5304,2.5309,2.5313,2.5316,2.5527,2.5529,0,0,0,0,0,0,2.4842,2.4865,2.5036,2.5044,2.4938,2.5032,2.5048,2.5088,2.5168,2.5179,2.5125,2.5125,2.5244,2.5256,2.5268,2.5354,2.531,2.5316,2.532,2.5525,2.5527,2.5529,0,0,0,0,0,0,2.4837,2.4857,2.5031,2.4955,2.4978,2.5038,2.5082,2.5091,2.5121,2.5182,2.5193,2.5144,2.5243,2.5259,2.5332,2.5358,2.5319,2.5325,2.5523,2.5526,2.5528,2.5526,0,0,0,0,0,0,2.483,2.4855,2.4883,2.4956,2.4982,2.5094,2.5084,2.5095,2.5133,2.5134,2.5203,2.5213,2.5243,2.5322,2.5338,2.5367,2.533,2.5521,2.5524,2.5527,2.5524,2.5528,2.5532,0,0,0,0,0,2.4822,2.4876,2.4884,2.4905,2.5019,2.5095,2.511,2.5145,2.5135,2.5163,2.5202,2.5211,2.5353,2.5329,2.5348,2.5378,2.5519,2.5523,2.5527,2.5522,2.5527,2.5532,0,0,0,0,0,0,2.4802,2.4886,2.4896,2.4976,2.5029,2.51,2.5136,2.515,2.5205,2.5203,2.5242,2.5258,2.5328,2.5361,2.5332,2.5449,2.5436,2.5443,2.5425,2.5431,2.5435,2.5424,2.5336,0,0,0,0,0,2.4807,2.4865,2.4934,2.4998,2.5024,2.5076,2.511,2.5133,2.5188,2.521,2.5255,2.5306,2.5363,2.5399,2.5454,2.5529,2.5544,2.5559,2.5563,2.5566,2.5572,2.5613,2.5621,2.5542,2.5542,2.5542,0,0,2.4818,2.4871,2.4904,2.4995,2.5039,2.5095,2.5094,2.5154,2.5196,2.5218,2.529,2.5325,2.5385,2.5459,2.5494,2.5489,2.5597,2.5571,2.5573,2.5577,2.5618,2.5626,2.5632,2.5545,2.5544,2.5544,0,0,2.4866,2.4913,2.4971,2.5015,2.5082,2.5116,2.513,2.52,2.5225,2.5298,2.5316,2.5366,2.5462,2.5504,2.5538,2.5604,2.5613,2.5621,2.5641,2.5681,2.5687,2.5692,2.5715,2.5722,2.5626,2.5626,2.5626,0,2.487,2.4959,2.4998,2.5058,2.5097,2.5123,2.5181,2.5221,2.5302,2.5327,2.5321,2.5443,2.5485,2.5569,2.5585,2.5612,2.5628,2.5612,2.5683,2.5689,2.5695,2.5716,2.5725,2.5627,2.5627,2.5627,2.5627,0,2.496,2.5021,2.5059,2.5139,2.5182,2.5241,2.5288,2.5326,2.5346,2.538,2.5454,2.5506,2.5572,2.5594,2.5612,2.5681,2.5675,2.5676,2.5662,2.5702,2.5723,2.5732,2.5627,2.5627,2.5627,2.5627,0,0,2.4998,2.51,2.5114,2.515,2.5226,2.5273,2.5332,2.5399,2.5431,2.5486,2.5535,2.5617,2.5618,2.5657,2.568,2.5716,2.5763,2.5712,2.5714,2.5718,2.584,2.5838,2.5847,2.5771,2.5773,2.5774,2.5835,0,2.5054,2.5163,2.5201,2.529,2.5346,2.5372,2.5423,2.5475,2.5509,2.5559,2.5596,2.5653,2.5651,2.5674,2.5711,2.575,2.5788,2.5746,2.5815,2.5817,2.5798,2.5859,2.5857,2.5912,2.5843,2.5845,2.5846,0,2.5135,2.5193,2.5288,2.5358,2.5383,2.5429,2.5493,2.5542,2.56,2.5623,2.5666,2.5688,2.5749,2.5734,2.5817,2.5788,2.5819,2.5842,2.5845,2.5851,2.5833,2.5865,2.593,2.5937,2.5859,2.5858,2.5857,0,2.5151,2.5253,2.5324,2.5354,2.5437,2.5469,2.5505,2.5562,2.56,2.5656,2.568,2.5742,2.5775,2.5821,2.5858,2.5844,2.5938,2.5926,2.5957,2.5956,2.5974,2.5972,2.6043,2.5996,2.5996,2.5996,2.5996,0,2.5209,2.5266,2.5332,2.5375,2.5439,2.5482,2.5543,2.558,2.5631,2.568,2.5707,2.5752,2.5799,2.5849,2.5879,2.5943,2.5958,2.5976,2.5983,2.5973,2.597,2.5992,2.5988,2.5998,2.5998,2.5997,2.5997,0,2.5238,2.5285,2.5363,2.5436,2.5456,2.55,2.5561,2.5603,2.5639,2.5701,2.5718,2.5773,2.5834,2.5877,2.5954,2.5974,2.6043,2.605,2.6024,2.6027,2.6055,2.6051,2.6141,2.6154,2.61,2.61,2.6101,0,2.5271,2.5316,2.5395,2.5431,2.5467,2.5524,2.5564,2.5608,2.5647,2.5718,2.5751,2.5814,2.5867,2.5964,2.601,2.6069,2.6077,2.6105,2.6086,2.6074,2.6076,2.6072,2.6076,2.6106,2.6107,2.6107,2.6107,0,2.5325,2.5346,2.5403,2.5469,2.5516,2.5569,2.5622,2.5649,2.5702,2.5745,2.581,2.5851,2.5932,2.5994,2.6059,2.6093,2.6108,2.6114,2.6123,2.6113,2.6095,2.6104,2.603,2.6111,2.611,2.611,2.611,2.611,2.5356,2.5396,2.5459,2.5521,2.5567,2.5616,2.5659,2.5701,2.5756,2.5827,2.5849,2.5915,2.5972,2.6061,2.6097,2.6148,2.6146,2.616,2.6164,2.6166,2.6166,2.6089,2.616,2.616,2.616,2.616,2.616,0,2.5409,2.5451,2.5509,2.5584,2.5633,2.5646,2.5706,2.5745,2.5804,2.5857,2.591,2.5983,2.6044,2.6095,2.6158,2.6189,2.6198,2.6204,2.6201,2.6208,2.6165,2.615,2.6196,2.6196,2.6196,2.6196,2.6196,2.6196,2.5443,2.5513,2.5542,2.5634,2.5675,2.5742,2.5775,2.582,2.5862,2.5944,2.5996,2.603,2.6082,2.6149,2.6204,2.6218,2.6239,2.6243,2.6258,2.6216,2.6212,2.6208,2.6193,2.6248,2.6248,2.6297,2.6298,2.6298]}]]